Weather History for K1R7 - January, 2014

Change the Weather History Date:

Thursday, January 23, 2014

  Actual Average (KMCB) Record (KMCB)
Temperature  
Mean Temperature 37 °F -  
Max Temperature 46 °F 60 °F 77 °F (1949)
Min Temperature 28 °F 38 °F 13 °F (1963)
Degree Days  
Heating Degree Days 28    
Moisture  
Dew Point 24 °F    
Average Humidity 63    
Maximum Humidity 93    
Minimum Humidity 37    
Precipitation  
Precipitation 0.24 in - - ()
Sea Level Pressure  
Sea Level Pressure 30.42 in    
Wind  
Wind Speed 4 mph (North)    
Max Wind Speed 14 mph    
Max Gust Speed 22 mph    
Visibility 9 miles    
Events Rain , Snow    
Averages and records for this station are not official NWS values.
T = Trace of Precipitation, MM = Missing Value Source: NWS Daily Summary

Daily Weather History Graph

Daily Weather History Graph

Search for Another Location

Airport or City:

Trip Planner

Search our weather history database for the weather conditions in past years. The results will help you decide how hot, cold, wet, or windy it might be!

Date:

Astronomy

Jan. 23, 2014 Rise Set
Actual Time 6:59 AM CST 5:28 PM CST
Civil Twilight 6:33 AM CST 5:54 PM CST
Nautical Twilight 6:03 AM CST 6:23 PM CST
Astronomical Twilight 5:34 AM CST 6:52 PM CST
Moon No Moon Rise 11:03 AM CST (1/23)
Length of Visible Light 11h 20m
Length of Day
10h 28m
Waning Gibbous, 55% of the Moon is Illuminated
Jan 23
Waning Gibbous
Jan 23
Last Quarter
Jan 30
New
Feb 6
First Quarter
Feb 14
Full

Hourly Weather History & Observations

Time (CST) Temp. Windchill Dew Point Humidity Pressure Visibility Wind Dir Wind Speed Gust Speed Precip Events Conditions
12:15 AM 35.6 °F - 30.2 °F 81% 30.21 in 10.0 mi Calm Calm - N/A   Clear
12:35 AM 35.6 °F - 30.2 °F 81% 30.21 in 10.0 mi Calm Calm - N/A   Clear
12:55 AM 35.6 °F - 30.2 °F 81% 30.22 in 10.0 mi Calm Calm - N/A   Clear
1:15 AM 35.6 °F - 28.4 °F 75% 30.23 in 10.0 mi Calm Calm - N/A   Clear
1:35 AM 35.6 °F - 30.2 °F 81% 30.24 in 10.0 mi Calm Calm - N/A   Clear
1:55 AM 33.8 °F - 28.4 °F 81% 30.24 in 10.0 mi Calm Calm - N/A   Clear
2:15 AM 32.0 °F - 28.4 °F 87% 30.24 in 10.0 mi Calm Calm - N/A   Clear
2:35 AM 32.0 °F - 28.4 °F 87% 30.24 in 10.0 mi Calm Calm - N/A   Clear
2:55 AM 32.0 °F - 28.4 °F 87% 30.25 in 10.0 mi Calm Calm - N/A   Clear
3:15 AM 32.0 °F - 28.4 °F 87% 30.25 in 10.0 mi Calm Calm - N/A   Clear
3:35 AM 33.8 °F - 28.4 °F 81% 30.26 in 10.0 mi Calm Calm - N/A   Clear
3:55 AM 33.8 °F - 26.6 °F 75% 30.26 in 10.0 mi Calm Calm - N/A   Clear
4:15 AM 35.6 °F - 24.8 °F 65% 30.27 in 10.0 mi Calm Calm - N/A   Clear
4:35 AM 33.8 °F - 26.6 °F 75% 30.27 in 10.0 mi Calm Calm - N/A   Clear
4:55 AM 33.8 °F - 26.6 °F 75% 30.28 in 10.0 mi Calm Calm - N/A   Clear
5:15 AM 33.8 °F - 26.6 °F 75% 30.29 in 10.0 mi Calm Calm - N/A   Clear
5:35 AM 35.6 °F - 23.0 °F 60% 30.29 in 10.0 mi Calm Calm - N/A   Clear
5:55 AM 35.6 °F - 23.0 °F 60% 30.30 in 10.0 mi Calm Calm - N/A   Clear
6:15 AM 35.6 °F - 23.0 °F 60% 30.30 in 10.0 mi Calm Calm - N/A   Clear
6:35 AM 33.8 °F - 23.0 °F 65% 30.33 in 10.0 mi Calm Calm - N/A   Clear
6:55 AM 33.8 °F 30.8 °F 23.0 °F 65% 30.34 in 10.0 mi NNE 3.5 mph - N/A   Clear
7:15 AM 33.8 °F 29.6 °F 23.0 °F 65% 30.36 in 10.0 mi NNE 4.6 mph - N/A   Clear
7:35 AM 33.8 °F - 23.0 °F 65% 30.37 in 10.0 mi Calm Calm - N/A   Clear
7:55 AM 33.8 °F 29.6 °F 23.0 °F 65% 30.38 in 10.0 mi NNE 4.6 mph - N/A   Clear
8:15 AM 35.6 °F 31.7 °F 23.0 °F 60% 30.38 in 10.0 mi NNE 4.6 mph - N/A   Clear
8:35 AM 35.6 °F 32.8 °F 24.8 °F 65% 30.40 in 10.0 mi NE 3.5 mph - N/A   Clear
8:55 AM 35.6 °F 31.7 °F 23.0 °F 60% 30.41 in 10.0 mi NE 4.6 mph - N/A   Clear
9:15 AM 37.4 °F 31.4 °F 23.0 °F 56% 30.41 in 10.0 mi NE 8.1 mph - N/A   Clear
9:35 AM 39.2 °F 35.0 °F 23.0 °F 52% 30.42 in 10.0 mi NE 5.8 mph - N/A   Scattered Clouds
9:55 AM 39.2 °F 35.0 °F 23.0 °F 52% 30.42 in 10.0 mi ENE 5.8 mph - N/A   Scattered Clouds
10:15 AM 42.8 °F 38.0 °F 23.0 °F 46% 30.44 in 10.0 mi NNE 8.1 mph - N/A   Clear
10:35 AM 42.8 °F 37.0 °F 23.0 °F 46% 30.44 in 10.0 mi North 10.4 mph - N/A   Scattered Clouds
10:55 AM 44.6 °F 40.2 °F 23.0 °F 43% 30.43 in 10.0 mi NE 8.1 mph 16.1 mph N/A   Mostly Cloudy
11:15 AM 44.6 °F 39.2 °F 23.0 °F 43% 30.42 in 10.0 mi NNE 10.4 mph - N/A   Partly Cloudy
11:35 AM 46.4 °F 41.9 °F 23.0 °F 40% 30.42 in 10.0 mi NE 9.2 mph - N/A   Clear
11:55 AM 46.4 °F 42.9 °F 21.2 °F 37% 30.42 in 10.0 mi North 6.9 mph - N/A   Mostly Cloudy
12:15 PM 46.4 °F 42.4 °F 21.2 °F 37% 30.42 in 10.0 mi NNE 8.1 mph 17.3 mph N/A   Mostly Cloudy
12:35 PM 46.4 °F 40.7 °F 21.2 °F 37% 30.41 in 10.0 mi NNE 12.7 mph 16.1 mph N/A   Mostly Cloudy
12:55 PM 46.4 °F 41.9 °F 23.0 °F 40% 30.40 in 10.0 mi North 9.2 mph - N/A   Mostly Cloudy
1:15 PM 46.4 °F 42.9 °F 23.0 °F 40% 30.41 in 10.0 mi NNE 6.9 mph - N/A   Mostly Cloudy
1:35 PM 46.4 °F 41.9 °F 23.0 °F 40% 30.40 in 10.0 mi North 9.2 mph - N/A   Mostly Cloudy
1:55 PM 46.4 °F 42.4 °F 23.0 °F 40% 30.40 in 10.0 mi NNE 8.1 mph - N/A   Overcast
2:15 PM 46.4 °F 42.9 °F 23.0 °F 40% 30.40 in 10.0 mi NNE 6.9 mph - N/A   Overcast
2:35 PM 46.4 °F 41.1 °F 23.0 °F 40% 30.41 in 10.0 mi North 11.5 mph - N/A   Overcast
2:55 PM 44.6 °F 39.7 °F 23.0 °F 43% 30.42 in 10.0 mi North 9.2 mph - N/A   Overcast
3:15 PM 44.6 °F 40.2 °F 23.0 °F 43% 30.42 in 10.0 mi North 8.1 mph - N/A   Overcast
3:35 PM 44.6 °F 38.8 °F 23.0 °F 43% 30.43 in 10.0 mi North 11.5 mph 16.1 mph N/A   Overcast
3:55 PM 42.8 °F 36.2 °F 21.2 °F 42% 30.45 in 10.0 mi North 12.7 mph 20.7 mph N/A   Overcast
4:15 PM 42.8 °F 37.0 °F 21.2 °F 42% 30.45 in 10.0 mi North 10.4 mph 18.4 mph N/A   Overcast
4:35 PM 42.8 °F 37.5 °F 19.4 °F 39% 30.46 in 10.0 mi North 9.2 mph - N/A   Overcast
4:55 PM 41.0 °F 33.9 °F 19.4 °F 42% 30.47 in 10.0 mi North 12.7 mph 20.7 mph N/A   Overcast
5:15 PM 39.2 °F 31.6 °F 19.4 °F 45% 30.49 in 10.0 mi North 12.7 mph 18.4 mph N/A   Overcast
5:35 PM 39.2 °F 31.2 °F 19.4 °F 45% 30.51 in 10.0 mi North 13.8 mph 20.7 mph N/A   Overcast
5:55 PM 35.6 °F 26.6 °F 23.0 °F 60% 30.52 in 9.0 mi NNW 13.8 mph 21.9 mph N/A   Mostly Cloudy
6:15 PM 35.6 °F 26.6 °F 26.6 °F 70% 30.53 in 7.0 mi North 13.8 mph 21.9 mph N/A   Mostly Cloudy
6:35 PM 33.8 °F 24.8 °F 26.6 °F 75% 30.54 in 9.0 mi NNW 12.7 mph 19.6 mph N/A   Mostly Cloudy
6:55 PM 33.8 °F 25.3 °F 28.4 °F 81% 30.56 in 8.0 mi North 11.5 mph 17.3 mph N/A Rain Light Rain
7:15 PM 33.8 °F 25.3 °F 26.6 °F 75% 30.56 in 5.0 mi North 11.5 mph 18.4 mph N/A   Mostly Cloudy
7:35 PM 32.0 °F 23.0 °F 28.4 °F 87% 30.57 in 2.5 mi NNW 11.5 mph - 0.02 in Snow Light Snow
7:55 PM 32.0 °F 23.6 °F 30.2 °F 93% 30.57 in 1.8 mi North 10.4 mph - 0.06 in Snow Light Snow
8:15 PM 30.2 °F 20.2 °F 28.4 °F 93% 30.58 in 1.8 mi North 12.7 mph 19.6 mph 0.02 in Snow Light Snow
8:35 PM 30.2 °F 20.2 °F 28.4 °F 93% 30.60 in 2.0 mi North 12.7 mph - 0.07 in Snow Light Snow
8:55 PM 30.2 °F 23.4 °F 26.6 °F 86% 30.61 in 6.0 mi NNW 6.9 mph - 0.08 in Snow Light Snow
9:15 PM 30.2 °F 22.6 °F 24.8 °F 80% 30.61 in 5.0 mi North 8.1 mph - N/A Snow Light Snow
9:55 PM 30.2 °F 21.3 °F 21.2 °F 69% 30.63 in 10.0 mi North 10.4 mph 16.1 mph 0.01 in Snow Light Snow
10:15 PM 30.2 °F 21.9 °F 19.4 °F 64% 30.64 in 5.0 mi North 9.2 mph 17.3 mph 0.01 in Snow Light Snow
10:35 PM 28.4 °F 20.4 °F 21.2 °F 74% 30.65 in 5.0 mi North 8.1 mph 18.4 mph 0.04 in Snow Light Snow
10:55 PM 28.4 °F 21.2 °F 21.2 °F 74% 30.65 in 3.0 mi North 6.9 mph - 0.07 in Snow Light Snow
11:15 PM 28.4 °F 20.4 °F 21.2 °F 74% 30.65 in 4.0 mi North 8.1 mph - 0.01 in Rain Light Freezing Rain
11:35 PM 28.4 °F 22.2 °F 19.4 °F 69% 30.66 in 9.0 mi North 5.8 mph - 0.02 in Snow Light Snow
11:55 PM 28.4 °F 19.1 °F 19.4 °F 69% 30.66 in 9.0 mi North 10.4 mph - 0.02 in   Partly Cloudy